Location: ??????????
(54.4061°N, 22.6114°E)
Time: 16:23:55
(UTC+00:00)

CZ-2D R/B - Pass Details

Date: 23 October 2019
Orbit: 522 x 538 km, 97.4° (Epoch: 19 November)

Event Time Altitude Azimuth Distance (km) Brightness Sun altitude
Rises 15:58:18 0° 129° (SE) 2,679 6.4 -7.0°
Reaches altitude 10° 16:00:42 10° 115° (ESE) 1,796 5.4 -7.4°
Maximum altitude 16:03:49 24° 62° (ENE) 1,162 4.4 -7.8°
Drops below altitude 10° 16:06:57 10° 8° (N) 1,812 5.8 -8.3°
Sets 16:09:22 0° 355° (N) 2,710 6.8 -8.6°
